Temperature
24 21 20 21 21 22 23 23 23 25 26 26 25 25 26 25 24 22 21 21 21 21 22 22 22 22 21 21 21 21 21 20 20 20 19 19 19 18 18 18 18 18 18 18
22 21 22 23 24 24 24 24 23 24 25 26 25 25 25 24 24 23 21 21 20 20 21 21 22 21 21 21 20 20 20 20 19 19 19 18 18 18 18 18 17 17 17 17
22 23 25 26 25 25 24 24 24 23 23 23 23 22 23 25 25 23 22 21 20 20 20 20 20 20 20 20 20 20 19 19 19 19 19 18 18 18 18 17 17 17 17 17
23 24 25 24 24 25 23 24 25 24 21 20 22 20 21 23 22 22 21 20 19 19 19 19 20 20 20 20 20 19 19 19 19 19 19 18 18 18 18 18 18 17 17 17
21 23 23 23 24 25 24 24 24 23 21 20 20 20 20 20 21 20 19 18 18 18 18 18 18 19 19 19 18 18 18 18 18 18 18 18 18 17 17 17 17 17 17 17
22 24 24 24 24 24 23 22 20 18 18 18 20 20 19 18 19 19 17 16 16 16 16 16 16 17 17 17 17 17 17 17 17 17 17 17 17 17 17 17 17 17 17 16
22 23 23 24 23 22 21 18 17 17 16 17 19 19 18 17 17 17 16 15 15 15 15 15 15 15 15 16 16 16 16 16 16 16 16 16 16 16 16 17 17 17 16 15
20 20 23 23 23 21 21 18 17 17 16 16 18 18 17 16 15 15 15 14 14 15 15 15 15 15 15 15 16 16 16 15 15 15 15 15 15 16 16 16 16 16 15 15
20 21 23 24 23 22 20 17 17 15 16 16 16 17 16 16 15 15 14 14 14 14 15 15 15 15 15 15 15 15 15 15 14 14 15 15 15 15 15 15 15 15 14 14
21 21 22 23 22 19 17 16 14 14 15 14 15 15 15 14 14 14 14 13 14 14 14 15 15 14 14 14 14 14 14 14 14 14 14 14 14 14 14 14 14 14 14 14
20 19 19 20 20 20 17 15 13 12 13 13 13 13 15 13 13 13 13 14 14 14 14 14 14 14 13 14 14 14 14 14 14 14 14 14 14 14 14 14 14 13 13 13
19 16 17 18 19 20 17 15 13 13 12 12 11 12 14 13 13 13 13 14 14 14 14 14 14 14 13 13 13 13 13 13 13 13 13 13 13 13 13 13 13 13 13 13
18 15 15 15 16 18 18 16 14 12 11 10 11 12 14 13 13 14 14 14 14 14 14 14 14 13 13 13 13 13 13 13 13 13 13 13 13 13 13 13 13 12 12 12
17 15 15 15 16 17 17 17 14 12 11 11 11 13 14 13 12 13 13 14 14 14 14 14 13 13 13 13 13 13 13 13 13 13 12 12 12 12 12 12 12 12 12 12
17 16 16 16 17 18 18 18 16 14 12 12 13 13 14 13 13 13 13 13 13 13 13 13 13 13 13 13 12 12 12 12 12 12 12 12 12 12 12 12 12 12 12 12
16 17 18 18 18 18 18 18 18 17 16 15 15 14 14 14 14 13 13 12 13 13 13 13 13 13 12 12 12 11 11 11 12 12 12 12 12 12 12 12 12 12 11 12
16 16 15 15 17 16 16 17 18 18 18 17 15 14 14 13 13 13 13 13 13 13 13 13 13 12 12 12 11 11 11 11 11 11 11 12 12 12 12 11 11 11 11 11
15 14 13 14 16 16 15 17 18 18 17 17 16 14 13 14 15 15 14 14 13 13 13 13 12 12 12 11 11 11 10 11 11 11 11 11 11 11 11 11 11 11 11 11
16 15 14 13 14 15 17 18 18 17 17 17 15 15 15 15 14 14 14 14 14 13 13 13 12 12 11 11 10 10 10 11 11 11 11 11 11 11 11 11 11 11 11 11
15 15 14 14 14 14 16 18 19 17 15 16 16 15 15 14 11 12 15 14 14 13 13 12 12 11 11 10 10 10 10 10 11 11 11 11 11 10 10 10 10 10 10 10
15 15 15 14 14 15 17 19 19 16 14 17 17 17 16 14 14 16 15 14 14 13 12 12 11 11 11 10 10 10 10 10 10 10 10 10 10 10 10 10 9 9 10 10
15 14 14 14 14 15 18 19 16 16 18 18 18 18 17 17 16 15 15 14 13 13 12 12 11 11 10 10 10 10 10 10 10 10 10 10 9 10 10 9 9 9 9 9
15 14 13 14 14 17 19 19 20 19 18 18 18 18 17 17 15 15 14 14 13 13 12 12 11 11 10 10 10 10 10 10 10 9 9 9 9 9 9 9 9 9 9 9
14 15 14 14 15 17 19 19 19 19 19 19 18 18 17 17 16 15 14 13 13 13 12 12 11 11 10 10 10 10 10 9 9 9 9 9 9 9 9 9 9 9 9 8
14 15 13 13 14 16 18 19 19 19 19 19 18 18 18 17 16 15 14 14 13 13 12 12 11 11 11 10 10 10 10 9 9 9 8 8 8 8 9 9 8 8 8 8
14 14 14 14 15 14 17 19 19 19 19 19 19 18 18 17 17 16 15 14 13 13 12 12 11 11 10 10 10 10 9 9 9 9 9 8 8 8 8 8 8 8 8 8
Wind_Speed
4 3 5 10 10 10 9 9 10 9 8 6 8 12 14 13 16 16 15 16 15 15 14 14 14 13 11 9 9 9 7 6 5 4 3 3 2 1 1 2 2 3 3 4
2 5 13 12 10 9 7 4 6 7 8 7 7 7 2 9 15 19 20 19 18 16 15 14 12 11 9 7 7 6 5 5 5 4 3 3 3 2 1 2 4 5 5 6
3 7 6 3 3 5 6 4 4 6 8 8 9 10 7 2 3 9 13 15 17 20 19 16 11 8 8 7 6 6 5 5 5 5 4 4 4 3 3 3 3 4 6 7
4 5 7 7 5 5 5 5 4 6 8 5 6 5 9 5 3 1 5 7 8 10 11 11 12 11 10 9 8 8 7 6 5 5 5 5 3 2 1 1 3 5 6 7
6 6 7 6 6 6 6 5 4 4 4 5 5 1 9 7 5 3 3 6 7 7 5 5 7 10 11 10 9 8 7 6 5 6 6 6 5 3 1 2 3 4 5 6
6 6 3 4 6 5 5 7 9 7 6 4 6 3 8 5 6 3 5 9 10 10 9 7 5 4 6 8 9 8 7 5 5 6 6 6 6 3 2 2 3 4 4 5
6 6 4 2 5 8 8 7 6 7 6 5 6 5 6 7 10 3 7 8 8 8 8 6 5 5 3 5 6 7 7 5 5 6 6 6 5 4 2 1 2 3 3 4
3 6 4 1 2 1 2 6 5 3 4 6 6 5 4 8 9 9 8 6 6 5 5 4 3 3 4 4 5 6 7 6 5 5 4 4 5 3 2 2 2 2 2 3
2 4 5 4 2 4 4 3 5 6 1 3 5 5 4 6 6 6 4 3 2 1 2 3 2 3 3 3 4 6 7 6 4 3 3 3 4 3 2 2 2 2 3 3
3 3 5 4 6 8 7 6 6 5 1 4 5 5 5 5 3 3 2 3 4 3 3 2 1 2 1 1 2 4 5 4 2 2 2 3 3 3 2 1 1 2 3 4
4 3 5 5 3 2 4 5 7 5 4 4 5 7 6 5 3 3 4 5 6 5 6 4 2 2 1 1 2 3 3 3 3 2 2 4 3 4 3 2 2 3 3 4
5 5 1 5 5 2 6 7 8 5 5 5 4 8 8 7 6 5 6 6 6 6 5 4 3 4 3 3 4 5 4 3 2 1 2 4 5 5 4 2 2 2 3 4
6 6 3 8 6 4 3 4 5 6 6 6 5 9 5 4 6 7 8 7 6 5 4 3 4 4 5 4 5 5 5 4 3 2 2 3 4 4 3 2 1 2 2 3
6 5 7 7 8 6 6 4 6 7 6 6 9 12 10 8 8 8 8 8 7 6 5 4 5 4 4 4 4 4 4 3 3 2 2 3 4 4 3 1 1 2 4 6
5 5 7 8 8 7 8 9 8 8 9 9 9 9 11 8 7 7 7 7 7 6 5 5 6 4 4 3 3 3 2 2 2 2 2 2 4 3 3 2 2 4 5 7
4 5 3 3 6 7 10 11 8 9 8 7 6 8 7 4 2 2 3 5 6 5 5 5 6 5 4 3 2 1 1 2 1 3 3 2 3 4 4 4 4 6 6 7
5 7 5 5 5 6 8 9 9 7 6 7 8 9 5 4 5 6 6 6 6 6 6 7 6 5 4 3 2 1 2 1 1 4 4 4 5 5 5 5 6 6 6 6
8 7 5 3 2 5 9 8 8 8 6 6 6 6 8 8 7 7 8 8 7 6 7 7 6 6 4 3 3 3 2 1 3 4 4 5 6 6 5 6 6 5 5 6
9 9 5 4 4 7 9 6 6 6 4 4 6 7 8 7 3 4 8 9 8 8 7 6 6 5 4 4 4 3 3 3 4 4 4 5 6 6 5 5 4 3 5 5
4 6 6 4 4 7 9 5 6 6 2 3 7 7 7 7 3 7 8 8 8 7 6 5 5 4 4 4 4 3 3 3 4 5 5 5 5 6 5 5 3 3 4 5
2 2 5 6 6 7 7 4 5 3 8 8 8 8 8 9 10 7 6 8 8 7 7 7 6 5 4 4 4 4 4 4 4 5 5 4 3 4 5 4 3 4 5 5
5 5 5 4 4 8 7 5 6 10 8 10 10 9 8 9 8 8 9 10 10 8 7 7 5 5 5 5 6 6 5 4 5 6 5 4 2 2 4 5 4 4 5 6
5 7 6 7 8 7 6 8 8 8 9 10 10 9 9 9 10 10 10 10 10 9 8 7 7 7 6 6 7 7 6 5 6 6 5 3 3 2 3 5 6 4 4 5
6 3 3 5 7 6 7 7 6 8 11 12 12 10 11 11 13 12 11 10 9 8 8 7 8 8 7 7 7 7 7 7 7 6 5 3 3 3 4 4 4 4 5 5
8 5 5 8 9 9 8 7 7 8 8 9 10 11 13 13 12 13 13 12 10 9 8 8 9 9 9 8 7 8 8 8 7 6 5 4 3 4 4 4 3 4 3 5
9 10 10 12 12 9 9 10 10 8 8 11 13 12 10 12 14 15 14 13 11 10 9 8 9 9 8 8 8 8 8 8 8 6 5 4 3 3 4 4 3 5 3 4
Wind_Direction
221 119 227 235 223 223 251 270 278 276 291 295 283 276 248 185 170 167 169 170 165 161 167 176 197 210 210 201 189 175 158 172 173 169 166 157 167 196 293 300 308 309 284 262
3 253 242 241 244 230 244 274 299 307 325 343 323 329 286 162 173 173 174 176 171 165 171 182 197 202 198 177 169 151 139 136 152 153 139 131 134 124 89 29 18 9 345 315
240 258 269 279 356 352 324 316 317 321 343 11 16 345 346 358 152 175 181 180 174 169 170 171 163 156 144 137 129 121 115 115 109 113 113 103 86 65 41 18 0 344 334 316
322 333 355 351 339 351 313 307 351 10 23 337 38 324 303 316 351 126 165 163 164 155 151 148 141 136 130 122 114 110 111 102 89 89 97 102 106 103 76 2 330 320 321 314
300 318 338 335 317 331 295 312 17 20 28 355 16 10 291 342 344 333 51 73 85 91 97 110 124 129 127 127 122 120 117 112 108 99 100 101 98 99 59 4 336 324 323 326
263 283 288 292 312 335 354 16 16 31 48 343 303 296 282 313 313 315 85 81 77 72 62 45 34 71 115 128 131 132 129 124 117 105 102 105 104 92 61 0 331 331 331 333
311 307 302 316 347 352 36 56 18 356 359 274 309 306 281 357 353 13 112 97 83 78 73 57 36 20 45 100 119 127 129 121 113 109 113 120 119 115 113 49 347 352 343 337
271 299 293 313 191 217 22 108 140 223 249 284 321 284 328 31 28 48 73 88 91 92 96 92 72 48 19 47 83 102 112 112 118 129 140 133 117 106 84 43 20 3 333 316
214 278 322 344 32 114 97 86 152 149 263 289 287 313 21 31 39 41 42 40 65 116 130 120 95 71 43 22 58 91 107 112 122 135 131 118 110 97 74 45 21 341 319 313
163 282 312 346 56 42 102 130 85 86 339 288 295 302 279 316 346 14 339 301 282 282 277 239 163 100 87 25 52 85 107 111 89 66 91 131 137 138 129 114 292 290 299 310
101 111 324 7 16 209 119 83 96 107 151 192 262 267 233 213 227 231 245 247 252 259 270 264 216 165 154 56 38 54 68 71 58 58 95 124 136 143 144 178 243 268 287 305
111 110 314 294 303 136 137 154 148 157 212 198 215 263 258 207 216 226 237 237 235 239 243 229 184 153 130 90 67 59 50 46 40 63 100 120 128 133 144 179 245 274 299 305
123 103 38 347 346 358 72 167 159 133 135 172 199 261 266 221 235 238 228 221 214 215 219 184 152 139 125 105 79 66 52 33 18 35 105 134 137 144 162 198 289 340 10 27
110 120 160 201 230 259 281 247 171 139 164 206 225 250 276 276 259 252 233 211 203 204 196 162 139 135 126 111 90 69 46 33 25 36 119 155 167 173 187 210 356 34 67 73
100 162 202 218 241 260 281 278 208 192 196 198 232 240 257 258 260 254 233 220 210 212 197 168 153 151 139 117 92 68 36 22 33 73 120 154 171 159 135 108 88 79 83 85
123 164 175 261 265 287 289 280 236 207 203 213 235 256 239 237 242 238 227 227 229 215 188 162 150 145 139 132 126 91 358 338 54 107 113 104 115 113 101 100 97 90 89 90
181 154 154 242 272 317 280 243 209 199 193 191 224 244 220 218 222 213 214 221 225 211 182 169 156 153 163 171 167 201 256 305 105 119 111 96 95 91 90 99 94 94 100 101
173 156 159 211 324 247 246 247 204 189 198 193 204 207 196 209 213 211 206 207 216 203 177 171 165 171 187 197 207 224 227 194 148 136 123 109 105 102 96 94 94 96 105 107
174 158 157 166 218 263 275 263 190 168 220 217 185 197 207 205 169 253 222 198 195 185 173 172 172 175 184 200 213 207 203 180 162 154 138 128 126 124 118 109 103 100 105 102
141 131 146 172 210 245 257 244 145 109 262 227 163 184 197 160 184 252 227 189 177 166 159 160 158 152 167 194 186 180 191 169 165 157 142 131 133 141 144 140 121 103 110 111
107 159 186 207 231 260 259 195 123 154 230 213 185 192 196 196 214 218 177 163 161 162 166 163 155 156 176 179 158 151 145 154 156 138 121 115 131 156 161 151 132 123 115 108
213 203 216 205 224 258 242 200 191 216 206 200 200 204 205 204 191 169 162 163 167 174 179 171 164 172 177 163 150 148 153 152 131 122 116 109 106 150 156 151 142 132 125 120
231 197 198 203 219 245 245 232 228 188 190 205 204 203 180 171 176 176 176 175 179 184 187 177 170 176 181 172 158 160 167 145 125 117 114 103 80 72 129 149 147 137 132 131
275 248 207 261 263 279 281 266 239 209 207 205 195 188 175 179 184 182 180 181 183 186 183 174 166 174 187 187 177 174 166 146 132 133 130 117 104 87 86 108 128 135 140 140
242 285 277 271 272 280 278 274 267 258 242 214 197 190 186 181 180 179 180 182 183 180 178 171 171 180 189 187 181 175 164 150 147 150 150 142 129 117 98 89 97 127 146 165
234 239 248 258 251 241 252 256 263 261 244 219 203 201 192 179 177 176 181 182 178 176 171 170 174 180 184 180 180 179 170 160 156 161 169 167 154 137 129 120 88 59 95 116
Height
1503 1509 1514 1510 1507 1508 1508 1510 1510 1499 1487 1485 1486 1481 1472 1475 1480 1484 1487 1490 1494 1496 1499 1502 1507 1511 1515 1517 1519 1520 1522 1524 1525 1527 1528 1528 1530 1531 1531 1531 1531 1531 1530 1530
1508 1511 1502 1499 1499 1500 1502 1505 1505 1496 1487 1484 1485 1480 1472 1472 1475 1478 1481 1485 1488 1491 1495 1498 1501 1505 1509 1511 1514 1516 1517 1519 1521 1522 1523 1525 1526 1527 1527 1528 1527 1527 1526 1524
1508 1503 1494 1495 1496 1498 1499 1502 1502 1500 1492 1487 1489 1493 1483 1476 1475 1478 1480 1481 1483 1484 1487 1492 1495 1499 1503 1507 1510 1511 1514 1516 1517 1518 1519 1520 1522 1522 1523 1523 1523 1522 1520 1518
1502 1497 1496 1496 1497 1497 1506 1494 1493 1494 1503 1509 1503 1518 1495 1485 1482 1481 1481 1483 1485 1488 1488 1489 1491 1495 1498 1502 1506 1507 1510 1513 1514 1515 1515 1517 1518 1518 1519 1519 1518 1517 1515 1512
1506 1499 1499 1500 1497 1494 1497 1491 1492 1494 1503 1511 1508 1515 1506 1490 1490 1488 1487 1487 1489 1491 1493 1493 1493 1492 1494 1498 1501 1503 1507 1509 1510 1512 1513 1513 1514 1515 1515 1514 1514 1512 1510 1507
1501 1496 1496 1496 1493 1492 1492 1495 1499 1504 1513 1527 1515 1516 1515 1501 1496 1491 1491 1491 1491 1493 1494 1496 1497 1496 1495 1496 1497 1500 1503 1505 1507 1508 1509 1510 1511 1511 1511 1511 1510 1508 1506 1503
1506 1499 1495 1494 1497 1496 1499 1515 1532 1535 1540 1535 1515 1515 1514 1502 1498 1494 1493 1494 1494 1494 1495 1497 1499 1499 1497 1496 1497 1497 1500 1503 1504 1506 1507 1508 1508 1508 1507 1506 1505 1504 1502 1500
1517 1517 1498 1494 1497 1503 1505 1515 1538 1546 1546 1536 1519 1519 1515 1508 1505 1501 1499 1499 1498 1497 1496 1497 1498 1498 1499 1498 1497 1497 1499 1501 1503 1504 1506 1506 1506 1505 1504 1503 1502 1501 1500 1498
1514 1513 1497 1494 1494 1498 1508 1519 1519 1534 1535 1538 1530 1519 1513 1509 1508 1507 1506 1503 1501 1499 1496 1496 1494 1495 1497 1499 1497 1497 1499 1501 1502 1503 1504 1504 1504 1504 1503 1502 1501 1499 1498 1497
1504 1512 1502 1496 1496 1503 1507 1515 1526 1535 1543 1548 1537 1530 1524 1515 1511 1509 1507 1505 1502 1500 1498 1496 1494 1494 1496 1498 1497 1497 1499 1500 1501 1502 1503 1503 1503 1503 1502 1501 1500 1498 1497 1496
1501 1514 1511 1504 1505 1508 1513 1521 1529 1537 1539 1548 1550 1539 1512 1511 1508 1506 1505 1502 1499 1497 1497 1495 1494 1494 1495 1497 1497 1497 1498 1499 1500 1502 1503 1502 1502 1502 1501 1501 1500 1498 1497 1495
1501 1515 1521 1512 1504 1500 1505 1515 1524 1536 1541 1542 1547 1537 1504 1505 1503 1502 1500 1498 1495 1494 1494 1493 1493 1493 1494 1496 1496 1497 1498 1499 1500 1501 1502 1502 1502 1501 1500 1500 1499 1498 1496 1495
1500 1517 1531 1528 1520 1509 1508 1512 1517 1525 1535 1542 1545 1530 1502 1501 1500 1498 1496 1494 1492 1491 1491 1490 1491 1492 1493 1494 1495 1496 1497 1498 1499 1500 1501 1501 1501 1500 1500 1499 1498 1497 1496 1495
1496 1512 1525 1530 1524 1514 1511 1508 1514 1523 1534 1536 1529 1516 1504 1500 1498 1495 1493 1490 1489 1489 1488 1488 1490 1492 1493 1494 1495 1496 1496 1497 1498 1499 1499 1500 1500 1500 1499 1498 1498 1498 1496 1495
1497 1510 1510 1511 1506 1503 1503 1502 1505 1512 1515 1521 1514 1508 1500 1496 1494 1491 1489 1488 1488 1488 1488 1488 1490 1492 1493 1494 1494 1494 1495 1495 1496 1496 1497 1498 1498 1498 1498 1498 1498 1498 1497 1496
1497 1504 1504 1505 1500 1499 1499 1495 1495 1497 1498 1501 1500 1499 1491 1491 1490 1489 1488 1488 1488 1488 1488 1489 1490 1491 1492 1493 1493 1493 1493 1494 1494 1495 1495 1496 1497 1497 1498 1498 1498 1498 1497 1496
1497 1502 1508 1512 1501 1502 1504 1490 1488 1489 1487 1491 1497 1493 1488 1489 1488 1487 1487 1487 1487 1487 1487 1488 1489 1490 1491 1491 1491 1491 1492 1493 1493 1493 1494 1495 1496 1496 1497 1498 1498 1498 1498 1497
1494 1500 1507 1510 1507 1511 1498 1478 1477 1480 1481 1482 1483 1484 1484 1484 1484 1484 1485 1485 1485 1486 1486 1487 1488 1489 1489 1490 1489 1489 1490 1491 1492 1493 1493 1494 1494 1495 1496 1497 1497 1497 1497 1497
1483 1493 1504 1511 1512 1502 1486 1475 1475 1480 1482 1478 1479 1480 1481 1481 1483 1483 1482 1482 1483 1483 1485 1486 1486 1487 1487 1487 1487 1488 1489 1489 1490 1491 1492 1492 1493 1494 1494 1495 1495 1496 1497 1497
1482 1487 1498 1506 1509 1508 1489 1473 1470 1476 1485 1477 1476 1477 1478 1480 1485 1481 1478 1479 1480 1481 1483 1484 1485 1485 1486 1486 1486 1486 1487 1487 1488 1490 1490 1491 1492 1492 1493 1493 1494 1495 1496 1497
1492 1493 1496 1500 1502 1493 1476 1471 1471 1486 1484 1473 1472 1473 1474 1475 1475 1474 1475 1476 1478 1480 1481 1482 1483 1483 1484 1484 1484 1484 1485 1486 1487 1488 1489 1490 1491 1491 1492 1493 1493 1495 1496 1497
1492 1496 1496 1496 1499 1494 1471 1469 1473 1471 1465 1466 1467 1468 1468 1468 1469 1470 1472 1474 1476 1478 1479 1480 1480 1481 1481 1482 1482 1482 1483 1484 1485 1486 1487 1488 1489 1490 1491 1492 1493 1494 1495 1496
1485 1486 1486 1486 1484 1471 1467 1465 1462 1461 1461 1461 1462 1463 1463 1464 1465 1467 1469 1471 1473 1475 1476 1477 1478 1479 1479 1479 1480 1480 1481 1482 1483 1484 1485 1487 1488 1489 1490 1491 1492 1493 1494 1495
1479 1474 1477 1476 1470 1466 1464 1462 1460 1458 1456 1455 1456 1457 1458 1459 1460 1462 1465 1467 1470 1471 1473 1474 1475 1476 1477 1477 1478 1479 1480 1480 1481 1482 1483 1485 1486 1487 1488 1489 1491 1492 1494 1495
1475 1473 1474 1472 1466 1462 1458 1457 1456 1454 1453 1451 1451 1452 1453 1454 1455 1457 1460 1462 1465 1467 1469 1470 1471 1473 1474 1475 1476 1477 1478 1479 1479 1480 1482 1483 1485 1486 1487 1489 1490 1492 1494 1495
1464 1465 1467 1464 1458 1457 1453 1451 1450 1449 1449 1448 1447 1447 1448 1449 1450 1452 1454 1457 1460 1462 1464 1466 1467 1469 1471 1472 1474 1475 1476 1477 1478 1479 1481 1483 1484 1485 1487 1488 1490 1492 1494 1495